www.pogodaiklimat.ru

Погода и климат >> Архив погоды >> Индия >> Чхаттисгарх >> Амбикапур


ПОГОДА в Амбикапуре

  • Прогноз погоды в Амбикапуре
  • Монитор погоды в Амбикапуре

АРХИВ ПОГОДЫ в Амбикапуре

Время (UTC), дата Ветер
(напр.,м/с)
 
Видим.   Явления Облачность Т
(С)
Тd
(С)
f
(%)
Тe
(С)
Тes
(С)
Комфортность P
(гПа)
Po
(гПа)
Тmin
(С)
Tmax
(С)
R
(мм)
R24
(мм)
S
(см)
18 19.05 штиль 0 4000 м 3/3 750 м
[Sc]
+31.2 +17.2 43 +35 +35 очень
душно
1007.1 941.5
21 19.05 штиль 0 4000 м 3/3 750 м
[Sc]
+28.6 +16.6 48 +32 +32 душно 1006.6 940.3
00 20.05 штиль 0 4000 м 4/3 750 м
[Sc Ac trans]
+26.4 +17.2 57 +30 +30 душно 1007.6 940.8
03 20.05 штиль 0 4000 м 3/0
[Ac trans]
+33.4 +17.1 38 +37 +48 очень
душно
1007.8 942.4 +25.9
06 20.05 З 2 4000 м 1/1 750 м
[Sc]
+37.0 +14.8 27 +38 +60 опасность
солнечного
удара
1006.6 941.9
09 20.05 З 2 4000 м 4/4 750 м
[Cu Sc]
+39.2 +14.2 23 +40 +49 очень
душно
1003.2 939.3
12 20.05 штиль 0 4000 м 3/3 750 м
[Sc]
+37.6 +16.1 28 +39 +41 очень
душно
1002.2 938.0 +40.0
15 20.05 штиль 0 4000 м 1/1 750 м
[Sc]
+34.0 +19.3 42 +39 +39 очень
душно
1004.3 939.3
18 20.05 штиль 0 4000 м ясно +31.4 +18.4 46 +36 +36 очень
душно
1006.2 940.4
21 20.05 штиль 0 4000 м ясно +28.8 +17.9 52 +33 +33 очень
душно
1005.6 939.3
00 21.05 штиль 0 4000 м ясно +26.8 +17.7 57 +31 +31 душно 1006.4 939.6
03 21.05 штиль 0 4000 м ясно +33.2 +19.0 43 +38 +52 опасность
солнечного
удара
1006.6 941.2 +25.3
06 21.05 штиль 0 4000 м ясно +38.4 +13.3 23 +39 +68 опасность
солнечного
удара
1005.0 940.9
09 21.05 С 1 4000 м 3/3 750 м
[Sc]
+41.0 +13.8 20 +41 +53 опасность
перегрева
1002.4 938.9
12 21.05 С 1 4000 м 5/4 750 м
[Sc Ac trans]
+39.8 +13.7 21 +40 +41 очень
душно
1001.4 937.5 +41.5
15 21.05 штиль 0 4000 м ясно +34.4 +18.0 38 +38 +38 очень
душно
1003.9 938.9
18 21.05 штиль 0 4000 м ясно +31.2 +15.7 39 +34 +34 душно 1005.1 939.5
21 21.05 штиль 0 4000 м ясно +28.8 +17.2 50 +33 +33 очень
душно
1004.6 938.3
00 22.05 штиль 0 4000 м ясно +27.0 +15.3 49 +30 +30 душно 1004.8 938.2
03 22.05 штиль 0 4000 м ясно +32.8 +18.9 44 +38 +52 опасность
солнечного
удара
1004.7 939.3 +26.3
06 22.05 З 2 4000 м ясно +37.6 +18.5 33 +42 +65 опасность
перегрева
1003.5 939.1
09 22.05 З 1 4000 м 3/3 750 м
[Sc]
+40.6 +15.0 22 +41 +53 опасность
перегрева
1001.4 937.8
12 22.05 З 1 4000 м гроза, ливневой дождь 8/5 600 м
[Cb cap Ac trans]
+33.6 +17.3 38 +37 +38 очень
душно
1001.3 936.3 +41.7 0.0
15 22.05 З 1 4000 м в посл. час гроза {дождь} 8/4 750 м
[Sc Ac trans]
+31.6 +19.9 50 +38 +38 очень
душно
1003.4 937.9 0.0
18 22.05 В 1 4000 м 5/3 750 м
[Sc Ac trans]
+30.0 +19.0 52 +35 +35 очень
душно
1003.8 937.8 0.0
21 22.05 штиль 0 4000 м 5/3 750 м
[Sc Ac trans]
+28.6 +18.4 54 +33 +33 очень
душно
1002.8 936.8 0.0
00 23.05 штиль 0 4000 м 3/0
[Ci fib]
+27.4 +18.7 59 +32 +33 очень
душно
1003.7 937.3 0.0
03 23.05 штиль 0 4000 м ясно +33.2 +19.8 45 +39 +53 опасность
солнечного
удара
1003.8 938.7 +26.5 0.0
06 23.05 Ю 1 4000 м ясно +37.4 +18.6 33 +41 +67 опасность
перегрева
1002.7 938.5
09 23.05 С 1 4000 м 3/3 750 м
[Sc]
+41.4 +19.2 28 +46 +58 опасность
перегрева
999.0 935.7
12 23.05 С 1 4000 м 5/5 750 м
[Cu Sc]
+37.0 +18.8 35 +42 +42 опасность
перегрева
999.0 934.8 +41.7
15 23.05 штиль 0 4000 м 3/3 750 м
[Sc]
+34.6 +20.5 44 +41 +41 опасность
перегрева
1000.8 935.8
18 23.05 штиль 0 4000 м 3/3 750 м
[Sc]
+31.6 +19.5 49 +37 +37 очень
душно
1002.5 936.9
21 23.05 штиль 0 4000 м 3/3 750 м
[Sc]
+29.0 +18.8 54 +34 +34 очень
душно
1002.2 936.1
00 24.05 В 1 4000 м 1/0
[Ac trans]
+28.8 +21.0 63 +36 +36 очень
душно
1003.2 936.9
03 24.05 З 1 4000 м ясно +33.0 +20.2 47 +39 +51 опасность
солнечного
удара
1003.4 938.1 +28.0
06 24.05 З 1 4000 м ясно +37.8 +19.9 35 +43 +69 опасность
перегрева
1002.1 937.9
09 24.05 З 2 4000 м 4/4 750 м
[Cu Sc]
+42.6 +17.7 24 +45 +55 опасность
перегрева
998.5 935.5
12 24.05 СЗ 1 4000 м 3/3 900 м
[Cu hum]
+41.4 +18.0 26 +45 +46 опасность
перегрева
997.1 934.0 +43.0
15 24.05 штиль 0 4000 м 3/3 750 м
[Sc]
+36.8 +20.1 38 +43 +43 опасность
перегрева
999.6 935.3
18 24.05 штиль 0 4000 м ясно +34.2 +18.9 41 +39 +39 очень
душно
1000.5 935.8
21 24.05 штиль 0 4000 м ясно +31.0 +18.8 48 +36 +36 очень
душно
999.3 934.8
00 25.05 штиль 0 4000 м ясно +30.0 +18.8 51 +35 +35 очень
душно
1002.5 936.7
03 25.05 штиль 0 4000 м ясно +35.0 +18.8 39 +40 +53 опасность
солнечного
удара
1002.4 937.5 +28.9
06 25.05 С 1 4000 м 3/3 900 м
[Cu hum]
+37.8 +18.8 33 +42 +60 опасность
перегрева
1001.1 937.0
09 25.05 СЗ 1 4000 м 6/4 750 м
[Sc Ac trans]
+37.6 +18.1 32 +41 +50 опасность
перегрева
1000.0 935.6
12 25.05 С 1 4000 м 4/3 750 м
[Sc Ac trans]
+37.8 +15.6 27 +39 +40 очень
душно
998.1 933.7 +39.2
15 25.05 СЗ 1 4000 м 1/0
[Ac trans]
+34.8 +15.4 31 +37 +37 очень
душно
1000.8 935.8
18 25.05 штиль 0 4000 м ясно +31.8 +16.1 39 +35 +35 очень
душно
1002.6 937.0
21 25.05 штиль 0 4000 м ясно +28.8 +16.4 47 +32 +32 душно 1002.3 936.0
00 26.05 штиль 0 4000 м ясно +27.6 +16.4 50 +31 +31 душно 1003.5 936.9
03 26.05 СЗ 1 4000 м ясно +31.8 +17.3 42 +36 +48 очень
душно
1004.2 938.6 +26.8
06 26.05 СЗ 1 4000 м ясно +36.4 +10.5 21 +35 +61 опасность
солнечного
удара
1002.9 938.3
09 26.05 З 1 4000 м 1/1 750 м
[Sc]
+39.4 +6.4 13 +37 +52 опасность
солнечного
удара
999.9 936.2
12 26.05 СЗ 1 4000 м 3/3 750 м
[Sc]
+38.8 +14.4 24 +40 +41 очень
душно
998.9 935.0 +40.7
15 26.05 штиль 0 4000 м ясно +34.0 +15.5 33 +36 +36 душно 1002.2 937.1

 

Местоположение метеостанции Амбикапур (Чхаттисгарх, Индия): широта 23.17 долгота 83.25 высота над уровнем моря 611 м.

В архиве по умолчанию представлена погода в Амбикапуре за последнюю неделю. Архивные данные за месяц целиком и за предыдущие месяцы, начиная с января 2011 года, Вы можете получить, выбрав интересующий диапазон дат из раскрывающегося списка и нажав кнопку "Ввод!".


*Определитесь, кто Вы:
робот инопланетянин человек

Внимание! Время в таблицах - всемирное. Для получения местного времени необходимо прибавить поправку, которая равна 5.5 ч.

Смотрите также архив погоды в соседних городах и на ближайших метеорологических станциях:

Погода в Далтонгандже (Джаркханд, Индия) (129 км)
Погода в Сундаргархе (Орисса, Индия) (142 км)
Погода в Пендра-роуде (Чхаттисгарх, Индия) (145 км)
Погода в Биласпуре (Чхаттисгарх, Индия) (163 км)
Погода в Джхарсугуде (Орисса, Индия) (163 км)
Погода в Харакаде (Орисса, Индия) (194 км)
Погода в Райпур аэропорту (Чхаттисгарх, Индия) (195 км)
Погода в Сидхи (Мадхья-Прадеш, Индия) (198 км)
Погода в Самбалпуре (Орисса, Индия) (203 км)
Погода в Ранчи (Джаркханд, Индия) (212 км)

Пояснения к столбцам:

Ветер - указаны скорость ветра в м/с - средняя за 10 мин, порывы в срок и между сроками (в фигурных скобках) и направление, откуда дует ветер: С - северный, СВ - северо-восточный, В - восточный, ЮВ - юго-восточный, Ю - южный, ЮЗ - юго-западный, З - западный, СЗ - северо-западный.
Видимость - горизонтальная дальность видимости в метрах или километрах. При видимости от 1 до 10 км при отсутствии осадков обычно наблюдается дымка, при ухудшении видимости до 1 км и менее - туман. В сухую погоду видимость может ухудшаться дымом, пылью или мглою.
Явления - указаны атмосферные явления, наблюдавшиеся в срок или в последний час перед сроком; фигурными скобками обозначены явления, наблюдавшиеся между сроками (за 1-3 часа до срока); квадратными скобками обозначены град или гололедные отложения с указанием их диаметра в мм.
Облачность - указаны через наклонную черту общая и нижняя облачность в баллах и высота нижней границы облаков в метрах; квадратными скобками обозначены формы облаков: Ci - перистые, Cs - перисто-слоистые, Cc - перисто-кучевые, Ac - высококучевые, As - высокослоистые, Sc - слоисто-кучевые, Ns - слоисто-дождевые, Cu - кучевые, Cb - кучево-дождевые. Подробнее классификацию облаков см. в Атласе облаков (PDF).
T - Температура воздуха - температура, измеренная на высоте 2 м над землей.
Td - Температура точки росы - температура, при понижении до которой содержащийся в воздухе водяной пар достигнет насыщения.
f - Относительная влажность воздуха - влажноcть воздуха, измеренная на высоте 2 м над землей.
Te - Эффективная температура - температура, которую ощущает одетый по сезону человек в тени. Характеристика душности погоды. При расчете учитывается влияние влажности воздуха и скорости ветра на теплоощущения человека.
Tes - Эффективная температура на солнце - температура, которую ощущает человек, с поправкой на солнечный нагрев. Характеристика знойности погоды. Зависит от высоты солнца над горизонтом, облачности и скорости ветра. Ночью, в пасмурную погоду, а также при ветре 12 м/с и более поправка равна нулю.
P - Атмосферное давление - приведенное к уровню моря атмосферное давление.
Po - Атмосферное давление - измеренное на уровне метеостанции атмосферное давление.
Tmin - Минимальная температура - минимум температуры воздуха на высоте 2 м над землей.
Tmax - Максимальная температура - максимум температуры воздуха на высоте 2 м над землей.
R - Количество осадков - Количество выпавших осадков за период времени, мм. При наведении курсора мыши на число - период времени, за который выпало указанное количество осадков.
R24 - Количество осадков - Количество выпавших осадков за 24 часа, мм.
S - Снежный покров - Высота снежного покрова, см. При наведении курсора мыши на число - состояние снежного покрова и степень покрытия местности в баллах.